Weather in Berezanskaya

Russia / Krasnodar Krai     45°42′07″N   39°35′03″E
temp.,
°C
wind,
m/s
gust,
m/s
humid.,
%
clouds,
%
prec.,
mm/h
press.,
hPa
HPBL,
m
24 january, sun
sun2400:00+2se457090 0.0 102365
03:00+1se347031 0.0 102248
06:000ese34771 0.0 102148
09:00+1ese467919 0.0 102197
12:00+3ese389563 0.0 1020161
15:00+4e478981 0.0 1018149
18:00+2ese4781100 0.0 1019139
21:00+1ese3480100 0.0 101884
25 january, mon
mon2500:00+1ese3478100 0.0 101964
03:00+2sse3475100 0.0 101840
06:00+2sse447985 0.0 101860
09:00+2sse477659 0.0 1018105
12:00+6se477935 0.0 1018186
15:00+6ese377945 0.0 1016162
18:00+3ese587437 0.0 1016135
21:00+3ese6126969 0.0 1015176
26 january, tue
tue2600:00+2se4775100 0.0 1014114
03:00+5ssw51368100 0.0 1014279
06:00+6ssw51786100 0.1 1015420
09:00+6ssw5148098 0.1 1016358
12:00+10ssw51471100 0.0 1016586
15:00+11s31070100 0.0 1016391
18:00+7ese5106899 0.0 1016179
21:00+6se61168100 0.0 1015195
27 january, wed
wed2700:00+5se4874100 0.0 1014152
03:00+6se4107199 0.0 1013166
06:00+5se3675100 0.0 1011106
09:00+6ese5971100 0.0 1010172
12:00+9ese5961100 0.0 1008252
15:00+10ese466099 0.0 1006328
18:00+7ese477481 0.0 1006139
21:00+6e467690 0.0 1005126
28 january, thu
thu2800:00+5e4776100 0.0 1004130
03:00+5ese4777100 0.0 1004127
06:00+5se1279100 0.0 100522
09:00+6ne1190100 0.2 100522
12:00+7sse1291100 1.6 1005154
15:00+6nw2499100 6.2 1005169
18:00+3w6993100 1.8 1007419
21:00+2wnw5881100 1.8 1009775